Location: Elma
(49.8670°N, 95.9170°W)
Time: 22:53:38
(UTC-05:00)

ISS - Pass Details

Date: 30 March 2019
Orbit: 408 x 410 km, 51.6° (Epoch: 23 April)

Event Time Altitude Azimuth Distance (km) Brightness Sun altitude
Rises 20:58:36 0° 277° (W) 2,337 1.8 -11.2°
Reaches altitude 10° 21:00:42 10° 281° (W) 1,475 0.5 -11.5°
Maximum altitude 21:03:59 62° 3° (N) 466 -3.5 -12.0°
Enters shadow 21:06:15 18° 81° (E) 1,074 -2.2 -12.3°
